Regional Weather Roundup
Issued by NWS

Home | Current Version | Previous Version | Text Only | Print | Product List | Glossary Off
Versions: 1 2 3 4 5 6 7 8 9 10 11 12 13 14 15 16 17 18 19 20 21 22 23 24 25 26 27 28 29 30 31 32 33 34 35 36 37 38 39 40 41 42 43 44 45 46 47 48 49 50

000
ASUS43 KMKX 050710
RWRWI

WISCONSIN REGIONAL WEATHER ROUNDUP
NATIONAL WEATHER SERVICE MILWAUKEE/SULLIVAN WI
100 AM CST THU MAR 05 2015

NOTE: "FAIR" INDICATES FEW OR NO CLOUDS BELOW 12,000 FEET WITH NO
SIGNIFICANT WEATHER AND/OR OBSTRUCTIONS TO VISIBILITY.

WIZ001-002-006>008-014>016-023>028-050800-
NORTHWEST WISCONSIN

CITY           SKY/WX    TMP DP  RH WIND       PRES   REMARKS
SUPERIOR ARPT  CLEAR    -11 -17  75 CALM      30.42S
ASHLAND        CLEAR     -6 -16  61 W9        30.38R WCI -23
HAYWARD        CLEAR    -18 -26  67 CALM      30.34S
SIREN          CLEAR    -14 -19  76 CALM      30.40S
CUMBERLAND     CLEAR     -9 -20  59 W5        30.36R WCI -21
RICE LAKE      CLEAR    -11 -19  68 W3        30.38R
CHETEK         CLEAR    -10 -16  77 CALM      30.38R
LADYSMITH      CLEAR    -12 -18  75 CALM      30.35R
EAU CLAIRE     CLEAR     -4 -15  59 NW7       30.39R WCI -18
MENOMONIE      CLEAR     -3 -13  60 W6        30.40R WCI -15
NEW RICHMOND   CLEAR     -7 -15  68 NW3       30.41R
OSCEOLA        CLEAR    -12 -18  75 CALM      30.45R
$$

WIZ003>005-009-010-017-018-050800-
NORTH CENTRAL WISCONSIN

CITY           SKY/WX    TMP DP  RH WIND       PRES   REMARKS
MANITOWISH WTR CLEAR    -10 -18  68 NW6       30.24S WCI -24
ARBOR VITAE    CLEAR     -8 -16  69 CALM      30.24S
WOODRUFF       CLEAR     -8 -16  69 CALM      30.24S
RHINELANDER    CLEAR     -9 -16  71 W8        30.24S WCI -25
EAGLE RIVER    CLEAR    -12 -20  67 CALM      30.23R
LAND O LAKES   FLURRIES -11 -16  77 CALM      30.23R
PHILLIPS       CLEAR    -18 -23  78 CALM      30.28R
TOMAHAWK       FAIR     -17 -22  77 CALM      30.28R
MEDFORD        CLEAR     -9 -16  71 W3        30.29R
MERRILL        CLEAR    -15 -19  79 CALM      30.30R
$$

WIZ029-030-035-036-043>047-050800-
CENTRAL WISCONSIN

CITY           SKY/WX    TMP DP  RH WIND       PRES   REMARKS
WAUSAU         FAIR      -5 -14  65 CALM      30.31R
MOSINEE        CLEAR     -4 -13  65 W5        30.33R WCI -15
MARSHFIELD     CLEAR     -7 -16  65 W5        30.34R WCI -18
STEVENS POINT  CLEAR     -8 -15  69 CALM      30.37R
WAUPACA        CLEAR      2 -11  55 NW5       30.39R WCI  -7
WAUTOMA        PTCLDY    -6 -14  68 CALM      30.40R
WISC RAPIDS    CLEAR     -5 -14  65 CALM      30.39R
CAMP DOUGLAS   CLEAR     -4 -10  75 W6        30.39R WCI -17
$$

WIZ011>013-019>022-031-037>040-048>050-050800-
NORTHEAST WISCONSIN

CITY           SKY/WX    TMP DP  RH WIND       PRES   REMARKS
ANTIGO         CLEAR    -10 -16  75 CALM      30.27R
SHAWANO        CLEAR      1 -11  57 CALM      30.37R
OCONTO         FAIR      -8 -14  75 CALM      30.38R
STURGEON BAY   CLEAR      0 -15  50 NW7       30.36R WCI -13
GREEN BAY      CLEAR     -4 -13  65 NW5       30.38R WCI -15
MANITOWOC      CLEAR      2  -9  60 N7        30.37R WCI -11
APPLETON       CLEAR      1 -13  51 NW6       30.37R WCI -10
CLINTONVILLE   CLEAR      0 -11  60 W3        30.38R
OSHKOSH        PTCLDY     2 -10  57 W6        30.37R WCI  -9
$$

WIZ032>034-041-042-053>061-050800-
SOUTHWEST WISCONSIN

CITY           SKY/WX    TMP DP  RH WIND       PRES   REMARKS
LA CROSSE      CLEAR      0  -9  65 CALM      30.44R
SPARTA         CLEAR     -4 -10  73 CALM      30.42R
VIROQUA        CLEAR      0  -8  69 CALM      30.36S
BOSCOBEL       CLEAR      0  -8  69 CALM      30.42F HAZE
PRAIRIE DU CHI CLEAR      2  -8  61 W8        30.43F WCI -12
PLATTEVILLE    CLEAR      1  -7  71 W3        30.37F
$$

WIZ056-057-062-063-064-067-068-050800-
SOUTH CENTRAL WISCONSIN

CITY           SKY/WX    TMP DP  RH WIND       PRES   REMARKS
REEDSBURG      CLEAR      2  -8  63 NW3       30.39S
BARABOO/DELLS  CLEAR      2 -10  55 CALM      30.38S
LONE ROCK      CLEAR      5  -6  60 NW7       30.40F WCI  -7
MINERAL POINT  CLEAR      3  -6  66 NW3       30.35S
MADISON        CLEAR      5  -7  57 NW6       30.37S WCI  -6
MIDDLETON      CLEAR      4  -5  65 NW5       30.37S WCI  -5
WATERTOWN      PTCLDY     5  -7  57 NW3       30.37R
MONROE         PTCLDY     5  -2  72 NW9       30.35R WCI  -9
JANESVILLE     PTCLDY     1  -8  66 NW3       30.37S
$$

WIZ051-052-058>065-066-070>072-050800-
SOUTHEAST WISCONSIN

CITY           SKY/WX    TMP DP  RH WIND       PRES   REMARKS
MILWAUKEE      MOCLDY     9  -9  44 NW8       30.37R WCI  -3
WAUKESHA       PTCLDY     3  -9  55 NW6       30.36R WCI  -8
MILWAUKEE/TIMM PTCLDY     7  -9  47 NW6       30.37R WCI  -3
RACINE         CLEAR      8 -10  43 NW3       30.39R
BURLINGTON     PTCLDY    -3 -12  67 CALM      30.37R
KENOSHA        CLEAR      3  -9  57 NW5       30.37R WCI  -6
FOND DU LAC    PTCLDY     2 -10  57 W8        30.37R WCI -12
SHEBOYGAN      PTCLDY     3 -10  54 NW5       30.36R WCI  -6
WEST BEND      PTCLDY     5  -9  51 W5        30.35R WCI  -4
JUNEAU         PTCLDY     3  -9  57 CALM      30.37R
$$

LSZ147-162-050800-
LAKE SUPERIOR

STATION/POSITION TIME  TEMP    WIND        PRES    WAVE
                       AIR SEA DIR/SP/G            HT/PER
                 (UTC) (F)     (DEG/KT/KT) (MB)    (FT/S)
DEVILS ISLAND    0700    5     290/  6/  7 1029.9S
PORT WING        0600    3     290/  8/ 13 1028.8R
SAXON HARBOR     0600   -1     220/  7/ 11 1028.1
$$

LMZ867-665-643>646-050800-
LAKE MICHIGAN

STATION/POSITION TIME  TEMP    WIND        PRES    WAVE
                       AIR SEA DIR/SP/G            HT/PER
                 (UTC) (F)     (DEG/KT/KT) (MB)    (FT/S)
NORTHPORT PIER   0612    3     290/  9/ 19 1027.1S
KEWAUNEE LAKESHO 0600    3     300/  3/  6 1026.8R
SHEBOYGAN LAKESH 0700    7     320/ 12/ 14 1030.2R
PORT WASHINGTON  0600    8     300/  5/  8 1028.8
MILWAUKEE LAKESH 0600   10     310/  9/ 13   N/A
KENOSHA   LAKESH 0700    8     310/  7/ 10 1028.1R
$$

TC  - TEMPERATURE IN CELSIUS
VSB - VISIBILITY IN STATUTE MILES
WCI - WIND CHILL INDEX
HX  - HEAT INDEX



USA.gov is the U.S. government's official web portal to all federal, state and local government web resources and services.